Location: Newark
(25.0000°N, 73.5000°E)
Time: 17:04:03
(UTC+00:00)

Courier 1B - All Passes

Search period start: 26 February 2021 00:00
Search period end: 08 March 2021 00:00
Orbit: 962 x 1209 km, 28.3° (Epoch: 25 February)

Date Brightness Start Highest point End Pass type
(mag) Time Alt. Az. Time Alt. Az. Time Alt. Az.
26 Feb - 02:14:29 10° SSW 02:19:18 22° SSE 02:24:12 10° E daylight
26 Feb - 04:06:29 10° WSW 04:12:55 64° SSE 04:19:39 10° E daylight
26 Feb - 06:00:25 10° W 06:07:05 72° N 06:14:11 10° ENE daylight
26 Feb - 07:54:43 10° WNW 08:01:38 72° N 08:09:03 10° E daylight
26 Feb - 09:48:52 10° WNW 09:56:04 70° SSW 10:03:42 10° ESE daylight
26 Feb - 11:43:53 10° W 11:50:07 28° SSW 11:56:34 10° SSE daylight
27 Feb - 01:22:03 10° S 01:25:41 15° SSE 01:29:20 10° ESE daylight
27 Feb - 03:13:01 10° SW 03:19:13 50° SSE 03:25:38 10° E daylight
27 Feb - 05:06:38 10° W 05:13:13 79° NNW 05:20:10 10° ENE daylight
27 Feb - 07:00:56 10° W 07:07:41 68° N 07:14:54 10° E daylight
27 Feb - 08:55:04 10° WNW 09:02:09 83° SSW 09:09:42 10° ESE daylight
27 Feb - 10:49:38 10° W 10:56:16 37° SSW 11:03:12 10° SE daylight
27 Feb - 12:48:20 10° SW 12:50:13 11° SSW 12:52:06 10° SSW daylight
28 Feb - 00:31:25 10° SSE 00:32:02 10° SSE 00:32:40 10° SE visible
28 Feb - 02:19:40 10° SW 02:25:35 38° SSE 02:31:34 10° E daylight
28 Feb - 04:12:53 10° WSW 04:19:24 90° SSW 04:26:12 10° ENE daylight
28 Feb - 06:07:09 10° W 06:13:46 66° N 06:20:46 10° E daylight
28 Feb - 08:01:19 10° WNW 08:08:14 85° NNE 08:15:38 10° ESE daylight
28 Feb - 09:55:36 10° W 10:02:25 47° SSW 10:09:37 10° SE daylight
28 Feb - 11:52:04 10° WSW 11:56:21 16° SSW 12:00:43 10° S daylight
01 Mar - 01:26:31 10° SSW 01:31:57 28° SSE 01:37:23 10° E daylight
01 Mar - 03:19:12 10° WSW 03:25:39 76° SSE 03:32:16 10° ENE daylight
01 Mar - 05:13:21 10° W 05:19:52 68° N 05:26:43 10° ENE daylight
01 Mar - 07:07:34 10° WNW 07:14:20 76° N 07:21:32 10° E daylight
01 Mar - 09:01:42 10° W 09:08:34 59° SSW 09:15:52 10° SE daylight
01 Mar - 10:57:09 10° WSW 11:02:31 22° SSW 11:08:04 10° SSE daylight
02 Mar - 00:33:37 10° SSW 00:38:19 21° SSE 00:42:58 10° ESE visible
02 Mar - 02:25:35 10° WSW 02:31:57 61° SSE 02:38:23 10° E daylight
02 Mar - 04:19:32 10° W 04:26:00 73° N 04:32:44 10° ENE daylight
02 Mar - 06:13:50 10° WNW 06:20:26 70° N 06:27:25 10° E daylight
02 Mar - 08:07:55 10° WNW 08:14:43 72° SSW 08:22:00 10° ESE daylight
02 Mar - 10:02:44 10° W 10:08:42 29° SSW 10:14:58 10° SSE daylight
02 Mar - 23:41:11 10° S 23:44:40 15° SSE 23:48:06 10° ESE visible
03 Mar - 01:32:03 10° SW 01:38:16 47° SSE 01:44:27 10° E daylight
03 Mar - 03:25:44 10° W 03:32:12 81° NNW 03:38:49 10° ENE daylight
03 Mar - 05:20:04 10° W 05:26:33 66° N 05:33:21 10° E daylight
03 Mar - 07:14:10 10° WNW 07:20:53 85° SSW 07:28:02 10° ESE daylight
03 Mar - 09:08:36 10° W 09:14:54 37° SSW 09:21:35 10° SE daylight
03 Mar - 11:06:50 10° SW 11:08:48 11° SSW 11:10:46 10° SSW daylight
04 Mar - 00:38:40 10° SW 00:44:37 36° SSE 00:50:27 10° E visible
04 Mar - 02:31:55 10° WSW 02:38:26 87° SSE 02:44:58 10° ENE daylight
04 Mar - 04:26:16 10° W 04:32:41 66° N 04:39:20 10° E daylight
04 Mar - 06:20:27 10° WNW 06:27:03 83° NNE 06:34:02 10° ESE daylight
04 Mar - 08:14:38 10° W 08:21:07 47° SSW 08:27:59 10° SE daylight
04 Mar - 10:10:52 10° WSW 10:14:59 16° SSW 10:19:12 10° S daylight
04 Mar - 23:45:26 10° SSW 23:50:58 27° SSE 23:56:20 10° E visible
05 Mar - 01:38:10 10° WSW 01:44:42 73° SSE 01:51:09 10° ENE daylight
05 Mar - 03:32:24 10° W 03:38:51 68° N 03:45:24 10° ENE daylight
05 Mar - 05:26:43 10° WNW 05:33:13 74° N 05:40:00 10° E daylight
05 Mar - 07:20:49 10° W 07:27:20 60° SSW 07:34:16 10° ESE daylight
05 Mar - 09:16:05 10° WSW 09:21:11 22° SSW 09:26:30 10° SSE daylight
05 Mar - 22:52:28 10° SSW 22:57:17 20° SSE 23:01:57 10° ESE visible
06 Mar - 00:44:28 10° SW 00:51:00 59° SSE 00:57:20 10° E visible
06 Mar - 02:38:31 10° W 02:45:02 74° N 02:51:32 10° ENE daylight
06 Mar - 04:32:57 10° WNW 04:39:23 68° N 04:46:00 10° E daylight
06 Mar - 06:27:02 10° WNW 06:33:35 74° SSW 06:40:27 10° ESE daylight
06 Mar - 08:21:46 10° W 08:27:26 29° SSW 08:33:24 10° SSE daylight
06 Mar - 21:59:58 10° S 22:03:35 15° SSE 22:07:05 10° ESE visible
06 Mar - 23:50:52 10° SW 23:57:18 46° SSE 00:03:29 10° E visible
07 Mar - 01:44:37 10° W 01:51:14 83° NNW 01:57:43 10° ENE daylight
07 Mar - 03:39:07 10° W 03:45:33 65° N 03:52:03 10° E daylight
07 Mar - 05:33:18 10° WNW 05:39:49 87° SSW 05:46:34 10° ESE daylight
07 Mar - 07:27:41 10° W 07:33:43 37° SSW 07:40:02 10° SE daylight
07 Mar - 09:25:47 10° SW 09:27:30 11° SSW 09:29:14 10° SSW daylight
07 Mar - 22:57:23 10° SW 23:03:36 35° SSE 23:09:31 10° E visible
